GW6550 Weather Reports


time (UTC)temp
F
wind
direction
speed
knots
gust
knots
rain 1hr
in
rain 24hr
in
rain mn
in
humidity
%
barometer
mb
20260901175807 67 296 1.7 2.6 0.00 0.00 0.00 54 1016.7
20260901175307 68 335 1.7 2.6 0.00 0.00 0.00 54 1016.7
20260901174807 68 282 1.7 2.6 0.00 0.00 0.00 53 1016.7
20260901174312 68 331 0.9 1.7 0.00 0.00 0.00 53 1016.6
20260901173808 68 187 1.7 1.7 0.00 0.00 0.00 53 1016.6
20260901173308 68 180 4.3 7.0 0.00 0.00 0.00 51 1016.5
20260901172808 67 287 0.9 1.7 0.00 0.00 0.00 54 1016.6
20260901172308 67 222 1.7 3.5 0.00 0.00 0.00 54 1016.5
20260901171808 67 324 0.9 1.7 0.00 0.00 0.00 53 1016.4
20260901171307 68 188 3.5 4.3 0.00 0.00 0.00 51 1016.5
20260901170810 67 132 1.7 4.3 0.00 0.00 0.00 52 1016.4
20260901170307 66 41 1.7 2.6 0.00 0.00 0.00 54 1016.3
20260901165808 65 159 2.6 4.3 0.00 0.00 0.00 55 1016.3
20260901165307 65 187 2.6 3.5 0.00 0.00 0.00 55 1016.4
20260901164807 65 266 2.6 4.3 0.00 0.00 0.00 57 1016.4
20260901164308 65 239 0.9 1.7 0.00 0.00 0.00 56 1016.3
20260901163808 65 252 1.7 2.6 0.00 0.00 0.00 57 1016.4
20260901163310 65 218 3.5 7.0 0.00 0.00 0.00 56 1016.3
20260901162807 65 238 0.9 1.7 0.00 0.00 0.00 57 1016.3
20260901162308 65 204 1.7 4.3 0.00 0.00 0.00 56 1016.3
20260901161807 65 189 2.6 4.3 0.00 0.00 0.00 56 1016.2
20260901161309 64 183 2.6 4.3 0.00 0.00 0.00 56 1016.3
20260901160807 64 249 0.9 1.7 0.00 0.00 0.00 58 1016.4
20260901160309 64 157 3.5 3.5 0.00 0.00 0.00 58 1016.4
20260901155807 64 201 0.9 0.9 0.00 0.00 0.00 59 1016.3
20260901155308 63 187 0.9 2.6 0.00 0.00 0.00 59 1016.3
20260901154808 63 184 3.5 5.2 0.00 0.00 0.00 59 1016.2
20260901154307 63 203 3.5 5.2 0.00 0.00 0.00 59 1016.1
20260901153807 63 192 3.5 5.2 0.00 0.00 0.00 59 1016.1
20260901153308 63 241 1.7 2.6 0.00 0.00 0.00 60 1016.1
20260901152807 63 285 0.0 1.7 0.00 0.00 0.00 60 1016.1
20260901152308 63 214 1.7 2.6 0.00 0.00 0.00 60 1015.9
20260901151808 63 229 1.7 2.6 0.00 0.00 0.00 60 1015.9
20260901151307 63 224 1.7 2.6 0.00 0.00 0.00 60 1015.9
20260901150811 63 190 2.6 3.5 0.00 0.00 0.00 60 1015.9
20260901150308 63 184 2.6 3.5 0.00 0.00 0.00 61 1016.0
20260901145807 62 203 1.7 2.6 0.00 0.00 0.00 61 1015.9
20260901145308 62 221 0.9 2.6 0.00 0.00 0.00 62 1015.8
20260901144807 62 201 2.6 3.5 0.00 0.00 0.00 62 1015.7
20260901144308 62 210 2.6 3.5 0.00 0.00 0.00 62 1015.7
20260901143808 62 195 3.5 4.3 0.00 0.00 0.00 63 1015.7
20260901143308 62 202 1.7 2.6 0.00 0.00 0.00 63 1015.6
20260901142807 62 218 0.9 1.7 0.00 0.00 0.00 64 1015.5
20260901142308 62 197 3.5 5.2 0.00 0.00 0.00 64 1015.5
20260901141810 62 220 0.9 1.7 0.00 0.00 0.00 64 1015.4
20260901141308 62 212 3.5 5.2 0.00 0.00 0.00 64 1015.3
20260901140811 62 200 0.9 1.7 0.00 0.00 0.00 64 1015.3
20260901140308 62 198 1.7 3.5 0.00 0.00 0.00 64 1015.2
20260901135807 61 208 1.7 3.5 0.00 0.00 0.00 64 1015.1
20260901135308 61 206 1.7 2.6 0.00 0.00 0.00 64 1015.1
20260901134808 61 184 0.9 1.7 0.00 0.00 0.00 64 1015.0
20260901134308 61 183 1.7 3.5 0.00 0.00 0.00 64 1015.0
20260901133808 61 204 1.7 2.6 0.00 0.00 0.00 64 1015.0
20260901133307 61 171 3.5 4.3 0.00 0.00 0.00 64 1014.9
20260901132807 61 198 3.5 4.3 0.00 0.00 0.00 64 1014.9
20260901132308 61 188 2.6 3.5 0.00 0.00 0.00 64 1014.9
20260901131807 61 179 1.7 1.7 0.00 0.00 0.00 64 1014.9
20260901131307 61 191 3.5 4.3 0.00 0.00 0.00 64 1014.9
20260901130808 61 187 1.7 2.6 0.00 0.00 0.00 64 1014.8
20260901130308 61 182 2.6 4.3 0.00 0.00 0.00 64 1014.7
20260901125807 61 200 1.7 3.5 0.00 0.00 0.00 64 1014.8
20260901125309 61 193 1.7 3.5 0.00 0.00 0.00 65 1014.8
20260901124811 61 213 0.0 0.9 0.00 0.00 0.00 65 1014.8
20260901124307 61 216 0.9 1.7 0.00 0.00 0.00 65 1014.7
20260901123808 61 152 1.7 2.6 0.00 0.00 0.00 65 1014.8
20260901123309 61 192 0.9 1.7 0.00 0.00 0.00 66 1014.8
20260901122817 61 201 1.7 2.6 0.00 0.00 0.00 66 1014.7
20260901122309 61 192 2.6 4.3 0.00 0.00 0.00 66 1014.6
20260901121808 61 203 1.7 2.6 0.00 0.00 0.00 66 1014.7
20260901121311 61 197 3.5 5.2 0.00 0.00 0.00 66 1014.6
20260901120807 61 178 1.7 1.7 0.00 0.00 0.00 66 1014.6
20260901120307 61 184 1.7 4.3 0.00 0.00 0.00 66 1014.6
20260901115807 61 158 0.9 1.7 0.00 0.00 0.00 67 1014.6
20260901115309 61 196 1.7 2.6 0.00 0.00 0.00 66 1014.6
20260901114808 61 196 1.7 2.6 0.00 0.00 0.00 67 1014.6
20260901114307 61 135 2.6 3.5 0.00 0.00 0.00 67 1014.6
20260901113808 61 176 1.7 1.7 0.00 0.00 0.00 68 1014.8
20260901113307 61 242 0.0 0.9 0.00 0.00 0.00 69 1014.9
20260901112808 61 202 0.0 0.9 0.00 0.00 0.00 69 1014.9
20260901112307 61 284 0.9 1.7 0.00 0.00 0.00 69 1014.9
20260901111808 61 223 0.9 1.7 0.00 0.00 0.00 70 1014.9
20260901111307 61 282 1.7 2.6 0.00 0.00 0.00 70 1015.0
20260901110807 61 255 0.0 0.9 0.00 0.00 0.00 70 1015.0
20260901110307 61 277 0.9 1.7 0.00 0.00 0.00 70 1014.9
20260901105807 61 294 0.9 2.6 0.00 0.00 0.00 70 1015.0
20260901105307 61 258 0.0 1.7 0.00 0.00 0.00 70 1014.9
20260901104807 61 237 0.0 0.9 0.00 0.00 0.00 69 1014.8
20260901104307 61 226 0.0 1.7 0.00 0.00 0.00 69 1014.8
20260901103807 61 263 0.9 1.7 0.00 0.00 0.00 69 1014.8
20260901103307 61 291 0.0 1.7 0.00 0.00 0.00 70 1014.7
20260901102807 61 269 0.0 1.7 0.00 0.00 0.00 70 1014.7
20260901102308 61 245 0.0 0.9 0.00 0.00 0.00 70 1014.7
20260901101807 61 280 0.9 1.7 0.00 0.00 0.00 70 1014.7
20260901101307 61 269 0.9 1.7 0.00 0.00 0.00 70 1014.6
20260901100807 61 282 0.0 1.7 0.00 0.00 0.00 70 1014.6
20260901100308 61 250 0.9 1.7 0.00 0.00 0.00 70 1014.6
20260901095807 61 226 0.9 1.7 0.00 0.00 0.00 71 1014.5
20260901095308 61 240 0.9 1.7 0.00 0.00 0.00 71 1014.6
20260901094808 61 234 0.0 0.9 0.00 0.00 0.00 71 1014.6
20260901094307 60 279 0.0 0.9 0.00 0.00 0.00 71 1014.5
20260901093807 60 229 1.7 1.7 0.00 0.00 0.00 71 1014.5
20260901093308 60 224 0.9 1.7 0.00 0.00 0.00 71 1014.5
20260901092807 60 213 0.0 0.9 0.00 0.00 0.00 72 1014.5
20260901092309 60 132 0.0 0.9 0.00 0.00 0.00 72 1014.5
20260901091809 60 255 0.0 0.9 0.00 0.00 0.00 72 1014.5
20260901091307 59 205 0.9 1.7 0.00 0.00 0.00 72 1014.5
20260901090808 59 227 0.0 0.9 0.00 0.00 0.00 72 1014.6
20260901090308 59 270 0.0 0.9 0.00 0.00 0.00 72 1014.5
20260901085809 59 223 0.9 1.7 0.00 0.00 0.00 73 1014.5
20260901085308 59 251 0.0 0.9 0.00 0.00 0.00 73 1014.5
20260901084807 59 245 0.0 1.7 0.00 0.00 0.00 73 1014.5
20260901084308 59 226 0.0 0.9 0.00 0.00 0.00 72 1014.5
20260901083808 59 228 0.0 0.9 0.00 0.00 0.00 72 1014.4
20260901083307 60 252 0.0 1.7 0.00 0.00 0.00 72 1014.4
20260901082809 60 254 0.0 0.9 0.00 0.00 0.00 71 1014.4
20260901082308 60 303 0.0 0.9 0.00 0.00 0.00 70 1014.5
20260901081808 60 298 0.0 0.9 0.00 0.00 0.00 70 1014.5
20260901081307 60 269 0.9 1.7 0.00 0.00 0.00 70 1014.6
20260901080809 60 278 1.7 2.6 0.00 0.00 0.00 70 1014.6
20260901080307 60 287 1.7 1.7 0.00 0.00 0.00 70 1014.6
20260901075807 60 291 1.7 2.6 0.00 0.00 0.00 70 1014.6
20260901075308 60 299 0.0 0.9 0.00 0.00 0.00 70 1014.5
20260901074808 60 251 0.9 1.7 0.00 0.00 0.00 70 1014.5
20260901074308 60 303 0.0 1.7 0.00 0.00 0.00 70 1014.4
20260901073808 61 257 0.9 1.7 0.00 0.00 0.00 70 1014.5
20260901073308 61 243 0.9 1.7 0.00 0.00 0.00 70 1014.6
20260901072809 61 245 0.0 3.5 0.00 0.00 0.00 70 1014.6
20260901072309 61 250 0.9 1.7 0.00 0.00 0.00 70 1014.6
20260901071807 61 279 0.9 2.6 0.00 0.00 0.00 70 1014.6
20260901071308 61 249 0.9 2.6 0.00 0.00 0.00 69 1014.6
20260901070807 61 253 0.9 2.6 0.00 0.00 0.00 69 1014.6
20260901070308 61 260 2.6 3.5 0.00 0.00 0.00 69 1014.6
20260901065317 61 284 0.0 1.7 0.00 0.00 0.00 70 1014.5
20260901064808 61 286 0.9 2.6 0.00 0.00 0.00 69 1014.5
20260901064308 61 280 2.6 3.5 0.00 0.00 0.00 69 1014.6
20260901063807 61 278 0.9 0.9 0.00 0.00 0.00 69 1014.6
20260901063307 61 256 1.7 2.6 0.00 0.00 0.00 69 1014.6
20260901062808 61 286 0.0 1.7 0.00 0.00 0.00 69 1014.7
20260901062310 61 205 1.7 2.6 0.00 0.00 0.00 70 1014.7
20260901061808 61 223 1.7 1.7 0.00 0.00 0.00 70 1014.7
20260901061307 61 258 0.9 2.6 0.00 0.00 0.00 70 1014.7
20260901060807 61 271 0.9 1.7 0.00 0.00 0.00 70 1014.7
20260901060308 61 278 2.6 3.5 0.00 0.00 0.00 70 1014.7
20260901055808 61 306 0.9 2.6 0.00 0.00 0.00 70 1014.8
20260901055308 61 279 1.7 3.5 0.00 0.00 0.00 70 1014.8
20260901054807 61 292 2.6 5.2 0.00 0.00 0.00 70 1014.8
20260901054307 61 282 2.6 3.5 0.00 0.00 0.00 70 1014.8
20260901053807 61 291 3.5 6.1 0.00 0.00 0.00 69 1014.8
20260901053307 61 277 1.7 2.6 0.00 0.00 0.00 70 1014.8
20260901052809 61 303 1.7 4.3 0.00 0.00 0.00 70 1014.8
20260901052307 61 294 0.9 2.6 0.00 0.00 0.00 71 1014.7
20260901051808 61 295 1.7 3.5 0.00 0.00 0.00 71 1014.7
20260901051307 61 302 1.7 3.5 0.00 0.00 0.00 71 1014.7
20260901050808 61 294 1.7 3.5 0.00 0.00 0.00 71 1014.7
20260901050308 60 296 2.6 3.5 0.00 0.00 0.00 72 1014.6
20260901045807 60 292 2.6 4.3 0.00 0.00 0.00 72 1014.5
20260901045308 60 282 1.7 2.6 0.00 0.00 0.00 72 1014.5
20260901044808 60 299 3.5 5.2 0.00 0.00 0.00 72 1014.4
20260901044307 60 271 1.7 5.2 0.00 0.00 0.00 72 1014.4
20260901043807 61 300 1.7 4.3 0.00 0.00 0.00 72 1014.3
20260901043307 61 299 2.6 5.2 0.00 0.00 0.00 72 1014.3
20260901042807 61 292 2.6 5.2 0.00 0.00 0.00 71 1014.2
20260901042307 61 308 1.7 3.5 0.00 0.00 0.00 71 1014.3
20260901041808 61 293 3.5 5.2 0.00 0.00 0.00 71 1014.3
20260901041307 61 303 2.6 5.2 0.00 0.00 0.00 71 1014.2
20260901040807 61 272 2.6 3.5 0.00 0.00 0.00 71 1014.2
20260901040308 61 288 1.7 3.5 0.00 0.00 0.00 71 1014.2
20260901035808 61 285 1.7 4.3 0.00 0.00 0.00 71 1014.2
20260901035308 61 304 2.6 4.3 0.00 0.00 0.00 72 1014.1
20260901034807 61 296 4.3 7.0 0.00 0.00 0.00 72 1014.0
20260901034313 61 290 1.7 3.5 0.00 0.00 0.00 73 1014.0
20260901033807 61 288 2.6 4.3 0.00 0.00 0.00 73 1013.9
20260901033307 62 286 4.3 7.8 0.00 0.00 0.00 73 1013.8
20260901032808 62 297 0.9 2.6 0.00 0.00 0.00 72 1013.8
20260901032307 62 294 2.6 5.2 0.00 0.00 0.00 72 1013.7
20260901031808 62 287 6.1 7.8 0.00 0.00 0.00 71 1013.7
20260901031308 62 285 3.5 5.2 0.00 0.00 0.00 71 1013.6
20260901030808 62 301 4.3 7.0 0.00 0.00 0.00 71 1013.6
20260901030308 62 286 2.6 5.2 0.00 0.00 0.00 70 1013.5
20260901025808 62 292 5.2 7.8 0.00 0.00 0.00 70 1013.4
20260901025307 62 280 2.6 7.0 0.00 0.00 0.00 70 1013.4
20260901024808 63 302 2.6 6.1 0.00 0.00 0.00 70 1013.4
20260901024307 63 303 3.5 4.3 0.00 0.00 0.00 69 1013.4
20260901023807 63 292 1.7 4.3 0.00 0.00 0.00 69 1013.4
20260901023307 63 304 3.5 7.0 0.00 0.00 0.00 69 1013.3
20260901022808 63 311 2.6 6.1 0.00 0.00 0.00 69 1013.4
20260901022310 63 315 2.6 3.5 0.00 0.00 0.00 69 1013.3
20260901021808 64 297 3.5 6.1 0.00 0.00 0.00 68 1013.3
20260901021307 64 299 2.6 5.2 0.00 0.00 0.00 68 1013.3
20260901020807 64 297 4.3 7.8 0.00 0.00 0.00 68 1013.2
20260901020307 64 296 5.2 7.8 0.00 0.00 0.00 68 1013.2
20260901015811 65 303 4.3 7.8 0.00 0.00 0.00 67 1013.2
20260901015308 65 297 3.5 6.1 0.00 0.00 0.00 67 1013.2
20260901014808 65 298 4.3 7.0 0.00 0.00 0.00 66 1013.1
20260901014308 66 294 2.6 6.1 0.00 0.00 0.00 65 1013.1
20260901013807 66 295 4.3 7.0 0.00 0.00 0.00 64 1013.1
20260901013307 67 290 3.5 7.0 0.00 0.00 0.00 63 1013.1
20260901012808 67 291 3.5 4.3 0.00 0.00 0.00 61 1013.1
20260901012314 67 294 1.7 2.6 0.00 0.00 0.00 62 1013.2
20260901011808 68 300 3.5 7.8 0.00 0.00 0.00 61 1013.2
20260901011308 68 295 2.6 5.2 0.00 0.00 0.00 60 1013.2
20260901010808 69 340 1.7 3.5 0.00 0.00 0.00 59 1013.2
20260901010307 69 298 1.7 3.5 0.00 0.00 0.00 60 1013.2
20260901005809 69 276 1.7 3.5 0.00 0.00 0.00 60 1013.3
20260901005307 69 328 2.6 4.3 0.00 0.00 0.00 59 1013.2
20260901004810 69 333 4.3 7.8 0.00 0.00 0.00 59 1013.1
20260901004307 69 336 3.5 6.1 0.00 0.00 0.00 60 1013.1
20260901003807 69 337 4.3 6.1 0.00 0.00 0.00 59 1013.1
20260901003308 69 293 2.6 4.3 0.00 0.00 0.00 59 1013.0
20260901002808 69 354 4.3 7.0 0.00 0.00 0.00 59 1013.0
20260901002307 69 332 1.7 5.2 0.00 0.00 0.00 60 1013.0
20260901001807 70 8 4.3 7.8 0.00 0.00 0.00 58 1013.0
20260901001308 70 327 4.3 7.8 0.00 0.00 0.00 57 1012.9
20260901000807 69 281 2.6 5.2 0.00 0.00 0.00 57 1013.0
20260901000313 69 336 3.5 6.1 0.00 0.00 0.00 58 1013.0
20260831235808 69 338 4.3 6.1 0.00 0.00 0.00 58 1013.2
20260831235310 69 351 3.5 6.1 0.00 0.00 0.00 59 1013.2
20260831234807 69 358 3.5 7.0 0.00 0.00 0.00 59 1013.0
20260831234310 69 5 3.5 7.0 0.00 0.00 0.00 60 1013.1
20260831233808 70 353 6.1 9.6 0.00 0.00 0.00 58 1013.1
20260831233308 70 321 5.2 10.4 0.00 0.00 0.00 59 1013.2
20260831232344 70 319 3.5 7.8 0.00 0.00 0.00 58 1013.2
20260831231808 70 327 3.5 5.2 0.00 0.00 0.00 59 1013.2
20260831231307 71 9 7.0 9.6 0.00 0.00 0.00 58 1013.2
20260831230807 72 349 5.2 7.8 0.00 0.00 0.00 57 1013.1
20260831230307 73 10 5.2 10.4 0.00 0.00 0.00 55 1013.1
20260831225807 72 19 1.7 2.6 0.00 0.00 0.00 55 1013.2
20260831225307 71 334 3.5 5.2 0.00 0.00 0.00 57 1013.2
20260831224807 71 328 4.3 7.0 0.00 0.00 0.00 57 1013.2
20260831224307 71 13 7.0 10.4 0.00 0.00 0.00 56 1013.3
20260831223808 71 5 5.2 7.8 0.00 0.00 0.00 58 1013.3
20260831223307 71 335 5.2 10.4 0.00 0.00 0.00 57 1013.2
20260831222807 71 7 3.5 7.0 0.00 0.00 0.00 58 1013.3
20260831222306 71 333 6.1 7.8 0.00 0.00 0.00 58 1013.4
20260831221808 71 340 5.2 9.6 0.00 0.00 0.00 57 1013.5
20260831221309 71 333 4.3 6.1 0.00 0.00 0.00 57 1013.5
20260831220808 72 293 3.5 5.2 0.00 0.00 0.00 56 1013.6
20260831220307 71 287 2.6 6.1 0.00 0.00 0.00 57 1013.6
20260831215807 71 276 4.3 7.8 0.00 0.00 0.00 57 1013.7
20260831215308 72 209 3.5 5.2 0.00 0.00 0.00 57 1013.8
20260831214807 72 278 1.7 3.5 0.00 0.00 0.00 57 1013.8
20260831214307 71 327 2.6 4.3 0.00 0.00 0.00 57 1013.8
20260831213807 71 259 1.7 4.3 0.00 0.00 0.00 58 1013.9
20260831213307 72 243 1.7 3.5 0.00 0.00 0.00 56 1014.0
20260831212807 71 300 2.6 5.2 0.00 0.00 0.00 57 1014.0
20260831212307 71 312 3.5 7.0 0.00 0.00 0.00 58 1014.2
20260831211808 71 258 2.6 4.3 0.00 0.00 0.00 58 1014.2
20260831211310 71 308 4.3 7.8 0.00 0.00 0.00 58 1014.2
20260831210807 71 310 3.5 5.2 0.00 0.00 0.00 58 1014.3
20260831210308 71 309 1.7 2.6 0.00 0.00 0.00 58 1014.3
20260831205807 71 220 2.6 3.5 0.00 0.00 0.00 58 1014.3
20260831205307 71 301 1.7 5.2 0.00 0.00 0.00 58 1014.4
20260831204808 70 360 2.6 4.3 0.00 0.00 0.00 59 1014.4
20260831204308 69 273 2.6 4.3 0.00 0.00 0.00 60 1014.4
20260831203807 70 229 3.5 7.0 0.00 0.00 0.00 59 1014.4
20260831203307 69 287 1.7 3.5 0.00 0.00 0.00 62 1014.5
20260831202808 69 300 0.9 1.7 0.00 0.00 0.00 62 1014.5
20260831202307 70 7 4.3 7.0 0.00 0.00 0.00 60 1014.4
20260831201808 70 2 4.3 7.8 0.00 0.00 0.00 59 1014.5
20260831201310 70 7 4.3 6.1 0.00 0.00 0.00 59 1014.5
20260831200808 70 334 1.7 5.2 0.00 0.00 0.00 60 1014.4
20260831200308 70 283 2.6 5.2 0.00 0.00 0.00 59 1014.5
20260831195808 69 236 1.7 3.5 0.00 0.00 0.00 60 1014.5
20260831195308 68 287 1.7 3.5 0.00 0.00 0.00 61 1014.6
20260831194808 68 299 3.5 7.0 0.00 0.00 0.00 61 1014.7
20260831194308 68 40 3.5 6.1 0.00 0.00 0.00 62 1014.6
20260831193807 69 194 2.6 3.5 0.00 0.00 0.00 61 1014.7
20260831193308 68 271 2.6 4.3 0.00 0.00 0.00 62 1014.8
20260831192807 68 326 1.7 3.5 0.00 0.00 0.00 62 1014.9
20260831192308 68 82 0.9 2.6 0.00 0.00 0.00 61 1014.8
20260831191807 68 286 3.5 7.8 0.00 0.00 0.00 62 1014.9
20260831191307 68 293 3.5 4.3 0.00 0.00 0.00 62 1014.9
20260831190808 68 336 3.5 6.1 0.00 0.00 0.00 62 1014.9
20260831190308 67 25 0.9 1.7 0.00 0.00 0.00 63 1014.9
20260831185807 67 343 2.6 4.3 0.00 0.00 0.00 64 1014.9
20260831185307 67 303 1.7 3.5 0.00 0.00 0.00 64 1014.9
20260831184808 67 276 3.5 7.0 0.00 0.00 0.00 64 1015.0
20260831184308 66 338 2.6 5.2 0.00 0.00 0.00 67 1015.0
20260831183809 66 297 5.2 9.6 0.00 0.00 0.00 66 1015.1
20260831183307 65 251 2.6 6.1 0.00 0.00 0.00 66 1015.1
20260831182807 65 305 6.1 9.6 0.00 0.00 0.00 68 1015.1
20260831182308 65 275 3.5 6.1 0.00 0.00 0.00 67 1015.2
20260831181808 65 271 2.6 3.5 0.00 0.00 0.00 66 1015.2
20260831181307 65 239 2.6 3.5 0.00 0.00 0.00 66 1015.1
20260831180807 65 297 5.2 8.7 0.00 0.00 0.00 68 1015.1
20260831180308 65 289 5.2 8.7 0.00 0.00 0.00 67 1015.2